Location: Bergnerzell
(49.1816°N, 10.2565°E)
Time: 09:37:51
(UTC+00:00)

Resurs 1-4 Rocket - Pass Details

Date: 23 May 2024
Orbit: 798 x 813 km, 98.7° (Epoch: 15 June)

Event Time Altitude Azimuth Distance (km) Brightness Sun altitude
Rises 00:25:17 0° 23° (NNE) 3,318 7.0 -18.5°
Reaches altitude 10° 00:27:57 10° 35° (NE) 2,382 5.7 -18.4°
Maximum altitude 00:32:27 28° 94° (E) 1,457 3.6 -18.1°
Enters shadow 00:36:01 14° 146° (SSE) 2,082 3.9 -17.9°
